Weather Roundup
Issued by NWS Chicago, IL

Home | Current Version | Previous Version | Graphics & Text | Print | Product List | Glossary On
Versions: 1 2 3 4 5 6 7 8 9 10 11 12 13 14 15 16 17 18 19 20 21 22 23 24 25 26 27 28 29 30 31 32 33 34 35 36 37 38 39 40 41 42 43 44 45 46 47 48 49 50
000
NZUS59 KLOT 260208
HRRLOT

CHICAGO AREA WEATHER ROUNDUP
NATIONAL WEATHER SERVICE CHICAGO/ROMEOVILLE IL
800 PM CST SAT FEB 25 2017

NOTE: "FAIR" INDICATES FEW OR NO CLOUDS BELOW 12,000 FEET WITH NO
SIGNIFICANT WEATHER AND/OR OBSTRUCTIONS TO VISIBILITY.

* THESE STATIONS ARE NOT UNDER NWS QUALITY CONTROL. THEY ALSO MAY NOT
  REPORT WEATHER SUCH AS PRECIPITATION OR FOG.

ILZ005-006-012>014-019>023-260300-
NORTHEAST ILLINOIS

CITY           SKY/WX    TMP DP  RH WIND       PRES   REMARKS
OHARE          PTCLDY    26  14  60 W9        29.99R WCI  17
MIDWAY         MOCLDY    25  13  60 W9        30.01R WCI  15
AURORA         CLOUDY    24  16  71 W9        30.02R WCI  14
LANSING*       CLEAR     25  17  69 W8        30.01R WCI  17
JOLIET*        PTCLDY    27  16  63 W3        30.03R
WAUKEGAN       CLEAR     23  13  65 VRB5      29.97R WCI  17
DUPAGE AIRPORT CLOUDY    23  14  68 W8        30.00R WCI  14
WHEELING       CLEAR     24  13  62 W6        30.01R WCI  17
KANKAKEE*      CLOUDY    26  17  67 W8        30.04R WCI  18
MORRIS*        CLOUDY    25  19  78 W8        30.02R WCI  16
LEWIS AIRPORT* PTCLDY    25  18  74 NW9       30.02R WCI  15
NORTHERLY ISL    N/A     27  16  63 W8          N/A  WCI  19
$$

WIZ051-052-058>065-066-070>072-260300-
SOUTHEAST WISCONSIN

CITY           SKY/WX    TMP DP  RH WIND       PRES   REMARKS
MILWAUKEE      PTCLDY    24  10  55 W7        29.96R WCI  16
KENOSHA*       CLEAR     21  13  71 W8        29.97R WCI  11
RACINE*        CLEAR     23  11  60 W8        29.98R WCI  14
WAUKESHA       CLEAR     19  10  68 W10       29.96R WCI   8
WEST BEND      CLEAR     19  14  79 W5        29.94R WCI  13
$$

INZ001>003-010>013-019-020-260300-
NORTHWEST INDIANA

CITY           SKY/WX    TMP DP  RH WIND       PRES   REMARKS
GARY*          MOCLDY    27  14  59 W14       30.02R WCI  15
MICHIGAN CITY* NOT AVBL
RENSSELAER*    NOT AVBL
VALPARAISO     CLOUDY    27  16  63 W16       30.00R WCI  15
$$

LMZ740>746-260300-
SOUTHERN LAKE MICHIGAN

STATION/POSITION TIME  SKY/WX   TEMP WIND        PRES    VSBY
                                AIR  DIR/SP/G
                 (UTC)          (F)  (DEG/KT/KT) (MB)    (MI)
HARRISON CRIB    0140            27  280/ 13/ 15   N/A
BURNHAM HARBOR   0200            26  260/ 13/ 15   N/A
CALUMET HARBOR   0148            26  280/  5/  9 1015.6R
BURNS HARBOR     0140            27  280/ 15/ 19 1016.3R
MICHIGAN CITY    0140            27  260/ 19/ 21   N/A
$$

ABBREVIATIONS USED IN REMARKS
   TC - TEMPERATURE IN CELSIUS
  WCI - WIND CHILL INDEX
   HX - HEAT INDEX
  VSB - VISIBILITY
$$




USA.gov is the U.S. government's official web portal to all federal, state and local government web resources and services.